CFG8TA EDDH-LGIR

Flight info

Callsign CFG8TA
Flight time N/A
Altitude 23000
Route RAMAR6G RAMAR Z998 NUSGU/N0441F370 Z998 RATMO DCT GODUR DCT HDO DCT GOLOP DCT ODNEM DCT XOMBA DCT KEROP DCT TISAK DCT RAXAD DCT MAKED UL617 KEA UL607 GIVIS T514 XAVIS
Aircraft A20N/M-SBDE3FGHIJ1J4J7LORVWXYZ/SB2D1G1

Departure

Time 2026-04-25 12:55
Airport Hamburg Helmut Schmidt Airport (EDDH)

Arrival

Time N/A
Airport Heraklion International Nikos Kazantzakis Airport (LGIR)
Time Latitude Longitude Altitude Speed Heading
2026-04-25 12:07 53.63332 10.00348 62 ft 0 kts 86°
2026-04-25 12:09 53.63281 10.00380 62 ft 0 kts 86°
2026-04-25 12:46 53.63281 10.00379 62 ft 1 kts 86°
2026-04-25 12:46 53.63280 10.00355 62 ft 2 kts 86°
2026-04-25 12:46 53.63279 10.00329 62 ft 2 kts 86°
2026-04-25 12:47 53.63278 10.00304 62 ft 2 kts 86°
2026-04-25 12:47 53.63277 10.00279 62 ft 2 kts 86°
2026-04-25 12:47 53.63276 10.00254 62 ft 2 kts 86°
2026-04-25 12:47 53.63275 10.00228 62 ft 2 kts 86°
2026-04-25 12:48 53.63274 10.00202 62 ft 2 kts 99°
2026-04-25 12:48 53.63280 10.00180 62 ft 2 kts 137°
2026-04-25 12:48 53.63294 10.00168 62 ft 2 kts 172°
2026-04-25 12:48 53.63305 10.00168 62 ft 0 kts 180°
2026-04-25 12:49 53.63306 10.00168 62 ft 0 kts 178°
2026-04-25 12:51 53.63305 10.00168 62 ft 0 kts 179°
2026-04-25 12:51 53.63282 10.00170 61 ft 5 kts 176°
2026-04-25 12:51 53.63240 10.00174 61 ft 6 kts 177°
2026-04-25 12:51 53.63189 10.00180 62 ft 8 kts 176°
2026-04-25 12:52 53.63132 10.00188 61 ft 8 kts 175°
2026-04-25 12:52 53.63067 10.00178 62 ft 9 kts 204°
2026-04-25 12:52 53.63006 10.00117 62 ft 10 kts 213°
2026-04-25 12:52 53.62946 10.00047 62 ft 10 kts 220°
2026-04-25 12:53 53.62903 9.99940 62 ft 11 kts 242°
2026-04-25 12:53 53.62869 9.99826 62 ft 6 kts 245°
2026-04-25 12:53 53.62872 9.99751 62 ft 7 kts 306°
2026-04-25 12:53 53.62906 9.99713 62 ft 0 kts 332°
2026-04-25 12:54 53.62912 9.99707 62 ft 7 kts 332°
2026-04-25 12:54 53.63186 9.99469 62 ft 79 kts 332°
2026-04-25 12:54 53.63869 9.98880 62 ft 138 kts 333°
2026-04-25 12:55 53.64788 9.98065 432 ft 153 kts 328°
2026-04-25 12:55 53.65439 9.97526 787 ft 159 kts 330°
2026-04-25 12:55 53.66781 9.96427 1612 ft 166 kts 327°
2026-04-25 12:55 53.67847 9.95485 2032 ft 181 kts 328°
2026-04-25 12:56 53.69083 9.94772 2511 ft 199 kts 345°
2026-04-25 12:56 53.70521 9.94625 3148 ft 210 kts 353°
2026-04-25 12:56 53.72007 9.94641 3826 ft 219 kts 358°
2026-04-25 12:56 53.73469 9.95475 4539 ft 239 kts 31°
2026-04-25 12:57 53.74531 9.97773 5136 ft 264 kts 57°
2026-04-25 12:57 53.75345 10.00716 5616 ft 282 kts 58°
2026-04-25 12:57 53.76173 10.03729 6273 ft 290 kts 58°
2026-04-25 12:57 53.77040 10.06842 7041 ft 294 kts 57°
2026-04-25 12:58 53.77926 10.09976 7823 ft 297 kts 57°
2026-04-25 12:58 53.78816 10.13094 8580 ft 300 kts 56°
2026-04-25 12:58 53.79523 10.16471 9279 ft 316 kts 78°
2026-04-25 12:58 53.79281 10.20227 9824 ft 334 kts 109°
2026-04-25 12:59 53.78022 10.23543 10485 ft 339 kts 131°
2026-04-25 12:59 53.76388 10.26549 10911 ft 353 kts 134°
2026-04-25 12:59 53.74701 10.29686 11215 ft 370 kts 131°
2026-04-25 12:59 53.73043 10.33035 11674 ft 381 kts 129°
2026-04-25 13:00 53.71392 10.36604 12334 ft 385 kts 128°
2026-04-25 13:00 53.70852 10.37809 12558 ft 386 kts 127°
2026-04-25 13:00 53.68172 10.43928 13607 ft 392 kts 126°
2026-04-25 13:00 53.66549 10.47684 14246 ft 396 kts 126°
2026-04-25 13:01 53.64930 10.51441 14851 ft 400 kts 126°
2026-04-25 13:01 53.63287 10.55253 15451 ft 403 kts 126°
2026-04-25 13:01 53.61624 10.59108 16045 ft 407 kts 126°
2026-04-25 13:01 53.59948 10.62990 16630 ft 410 kts 126°
2026-04-25 13:02 53.58258 10.66897 17195 ft 413 kts 127°
2026-04-25 13:02 53.56566 10.70803 17757 ft 415 kts 127°
2026-04-25 13:02 53.54864 10.74721 18312 ft 418 kts 127°
2026-04-25 13:02 53.53128 10.78712 18826 ft 421 kts 128°
2026-04-25 13:03 53.51406 10.82660 19346 ft 424 kts 127°
2026-04-25 13:03 53.49653 10.86678 19840 ft 427 kts 127°
2026-04-25 13:03 53.47866 10.90768 20360 ft 430 kts 127°
2026-04-25 13:03 53.46091 10.94824 20856 ft 433 kts 127°
2026-04-25 13:04 53.44321 10.98863 21362 ft 435 kts 127°
2026-04-25 13:04 53.42501 11.03014 21870 ft 438 kts 127°
2026-04-25 13:04 53.40689 11.07135 22336 ft 441 kts 127°
2026-04-25 13:04 53.38851 11.11304 22842 ft 443 kts 127°
2026-04-25 13:05 53.37022 11.15454 23302 ft 446 kts 127°
2026-04-25 13:05 53.35161 11.19665 23766 ft 449 kts 127°
2026-04-25 13:05 53.33302 11.23866 24193 ft 452 kts 127°
2026-04-25 13:05 53.31402 11.28151 24621 ft 455 kts 127°
2026-04-25 13:06 53.29521 11.32385 25046 ft 458 kts 127°
2026-04-25 13:06 53.27544 11.36635 25465 ft 461 kts 130°
2026-04-25 13:06 53.25404 11.40642 25872 ft 463 kts 135°
2026-04-25 13:06 53.23073 11.44422 26259 ft 465 kts 139°
2026-04-25 13:07 53.20695 11.48052 26649 ft 468 kts 139°
2026-04-25 13:07 53.18253 11.51756 27022 ft 471 kts 139°
2026-04-25 13:07 53.15851 11.55409 27395 ft 473 kts 139°
2026-04-25 13:07 53.13397 11.59156 27744 ft 476 kts 139°
2026-04-25 13:08 53.10960 11.62883 28068 ft 479 kts 139°
2026-04-25 13:08 53.08480 11.66674 28381 ft 482 kts 140°
2026-04-25 13:08 53.05996 11.70461 28755 ft 482 kts 140°
2026-04-25 13:08 53.03534 11.74207 29194 ft 481 kts 140°
2026-04-25 13:09 53.01080 11.78007 29511 ft 483 kts 137°
2026-04-25 13:09 52.98714 11.82074 29769 ft 486 kts 133°
2026-04-25 13:09 52.96527 11.86355 30002 ft 489 kts 129°
2026-04-25 13:09 52.94486 11.90798 30265 ft 491 kts 127°
2026-04-25 13:10 52.92353 11.95285 30487 ft 492 kts 135°
2026-04-25 13:10 52.89810 11.99072 30738 ft 491 kts 143°
2026-04-25 13:10 52.87104 12.02562 31041 ft 490 kts 144°
2026-04-25 13:10 52.84383 12.06004 31348 ft 489 kts 144°
2026-04-25 13:11 52.81701 12.09459 31645 ft 489 kts 143°
2026-04-25 13:11 52.79038 12.12961 31965 ft 487 kts 143°
2026-04-25 13:11 52.76407 12.16465 32266 ft 486 kts 142°
2026-04-25 13:11 52.73778 12.19990 32567 ft 484 kts 142°
2026-04-25 13:12 52.71170 12.23490 32851 ft 483 kts 142°
2026-04-25 13:12 52.68574 12.26966 33119 ft 482 kts 142°
2026-04-25 13:12 52.65971 12.30443 33390 ft 481 kts 142°
2026-04-25 13:12 52.64193 12.32783 33564 ft 481 kts 143°
2026-04-25 13:13 52.60646 12.37226 33876 ft 480 kts 144°
2026-04-25 13:13 52.57972 12.40511 34132 ft 479 kts 145°
2026-04-25 13:13 52.55313 12.43774 34376 ft 478 kts 144°
2026-04-25 13:13 52.52654 12.47043 34603 ft 477 kts 144°
2026-04-25 13:14 52.49994 12.50317 34816 ft 476 kts 144°
2026-04-25 13:14 52.47345 12.53577 35028 ft 475 kts 144°
2026-04-25 13:14 52.44707 12.56823 35216 ft 475 kts 144°
2026-04-25 13:14 52.42048 12.60093 35392 ft 475 kts 144°
2026-04-25 13:15 52.39412 12.63332 35570 ft 474 kts 144°
2026-04-25 13:15 52.36766 12.66576 35748 ft 474 kts 145°
2026-04-25 13:15 52.34128 12.69803 35907 ft 473 kts 145°
2026-04-25 13:15 52.31484 12.73033 36073 ft 472 kts 145°
2026-04-25 13:16 52.28833 12.76268 36246 ft 471 kts 145°
2026-04-25 13:16 52.26193 12.79486 36414 ft 470 kts 145°
2026-04-25 13:16 52.23569 12.82681 36568 ft 470 kts 146°
2026-04-25 13:16 52.20970 12.85839 36741 ft 469 kts 146°
2026-04-25 13:17 52.18340 12.89027 36913 ft 469 kts 145°
2026-04-25 13:17 52.15723 12.92196 36995 ft 470 kts 145°
2026-04-25 13:17 52.10479 12.98532 37011 ft 469 kts 145°
2026-04-25 13:18 52.05217 13.04873 37012 ft 469 kts 145°
2026-04-25 13:18 51.99978 13.11168 37006 ft 469 kts 145°
2026-04-25 13:19 51.94721 13.17466 37011 ft 468 kts 146°
2026-04-25 13:19 51.90329 13.22715 37004 ft 468 kts 146°
2026-04-25 13:20 51.84198 13.30013 37011 ft 468 kts 146°
2026-04-25 13:20 51.78950 13.36276 37008 ft 468 kts 145°
2026-04-25 13:21 51.73703 13.42545 37001 ft 467 kts 145°
2026-04-25 13:21 51.68498 13.48741 37008 ft 466 kts 145°
2026-04-25 13:22 51.63260 13.54959 37002 ft 465 kts 145°
2026-04-25 13:23 51.55414 13.64233 36997 ft 465 kts 145°
2026-04-25 13:23 51.50210 13.70368 37000 ft 464 kts 146°
2026-04-25 13:24 51.44996 13.76494 37004 ft 464 kts 146°
2026-04-25 13:24 51.39771 13.82612 37000 ft 464 kts 146°
2026-04-25 13:25 51.34557 13.88701 37003 ft 462 kts 146°
2026-04-25 13:25 51.29356 13.94760 37001 ft 462 kts 146°
2026-04-25 13:26 51.24134 14.00823 37006 ft 461 kts 146°
2026-04-25 13:26 51.18937 14.06843 37011 ft 461 kts 146°
2026-04-25 13:27 51.13748 14.12837 37008 ft 461 kts 146°
2026-04-25 13:27 51.08541 14.18834 37002 ft 460 kts 146°
2026-04-25 13:28 51.03364 14.24783 37002 ft 459 kts 146°
2026-04-25 13:28 50.98101 14.30696 37001 ft 458 kts 150°
2026-04-25 13:29 50.92561 14.35554 37007 ft 454 kts 159°
2026-04-25 13:29 50.86675 14.39066 37006 ft 449 kts 168°
2026-04-25 13:30 50.77572 14.42520 37008 ft 447 kts 171°
2026-04-25 13:31 50.68495 14.45880 37006 ft 446 kts 171°
2026-04-25 13:31 50.62479 14.48723 37006 ft 453 kts 161°
2026-04-25 13:32 50.56929 14.53411 37005 ft 457 kts 148°
2026-04-25 13:32 50.52042 14.59915 37010 ft 461 kts 136°
2026-04-25 13:33 50.47568 14.67220 37003 ft 461 kts 136°
2026-04-25 13:33 50.43102 14.74518 37002 ft 462 kts 136°
2026-04-25 13:34 50.38646 14.81719 37002 ft 461 kts 136°
2026-04-25 13:34 50.34129 14.88976 37004 ft 461 kts 137°
2026-04-25 13:35 50.29649 14.96149 37004 ft 461 kts 137°
2026-04-25 13:35 50.25140 15.03341 37002 ft 461 kts 137°
2026-04-25 13:36 50.20644 15.10493 36999 ft 461 kts 137°
2026-04-25 13:36 50.16158 15.17608 37002 ft 461 kts 137°
2026-04-25 13:37 50.11650 15.24743 37002 ft 461 kts 137°
2026-04-25 13:37 50.07122 15.31881 37005 ft 462 kts 137°
2026-04-25 13:38 50.02598 15.38994 37008 ft 462 kts 137°
2026-04-25 13:38 49.98049 15.46123 37010 ft 462 kts 137°
2026-04-25 13:39 49.93503 15.53235 37013 ft 462 kts 137°
2026-04-25 13:39 49.88955 15.60327 37017 ft 462 kts 137°
2026-04-25 13:40 49.84418 15.67382 37011 ft 462 kts 138°
2026-04-25 13:40 49.79854 15.74460 37014 ft 462 kts 139°
2026-04-25 13:41 49.75302 15.81496 37005 ft 462 kts 138°
2026-04-25 13:41 49.70708 15.88581 36996 ft 462 kts 138°
2026-04-25 13:42 49.66153 15.95584 36992 ft 463 kts 139°
2026-04-25 13:42 49.61582 16.02588 36993 ft 462 kts 139°
2026-04-25 13:43 49.56987 16.09608 36989 ft 462 kts 139°
2026-04-25 13:43 49.52405 16.16596 36992 ft 462 kts 139°
2026-04-25 13:44 49.47825 16.23560 36993 ft 462 kts 139°
2026-04-25 13:44 49.43246 16.30500 36992 ft 463 kts 139°
2026-04-25 13:45 49.38649 16.37453 36995 ft 463 kts 139°
2026-04-25 13:45 49.34042 16.44402 37000 ft 462 kts 139°
2026-04-25 13:46 49.29456 16.51297 36998 ft 462 kts 139°
2026-04-25 13:46 49.24851 16.58207 36996 ft 462 kts 139°
2026-04-25 13:47 49.20306 16.65001 36997 ft 463 kts 139°
2026-04-25 13:47 49.15625 16.71986 36996 ft 461 kts 140°
2026-04-25 13:48 49.11015 16.78840 36996 ft 462 kts 140°
2026-04-25 13:48 49.06388 16.85705 36994 ft 462 kts 140°
2026-04-25 13:49 49.01766 16.92544 36989 ft 462 kts 140°
2026-04-25 13:49 48.97147 16.99363 36989 ft 462 kts 140°
2026-04-25 13:50 48.92499 17.06205 36990 ft 462 kts 140°
2026-04-25 13:50 48.87819 17.12894 36987 ft 459 kts 143°
2026-04-25 13:51 48.82714 17.18726 36990 ft 455 kts 152°
2026-04-25 13:51 48.77249 17.23513 36989 ft 452 kts 156°
2026-04-25 13:52 48.71719 17.28069 36984 ft 452 kts 156°
2026-04-25 13:52 48.66159 17.32665 36980 ft 452 kts 156°
2026-04-25 13:53 48.60657 17.37214 36979 ft 452 kts 156°
2026-04-25 13:53 48.55121 17.41783 36980 ft 452 kts 156°
2026-04-25 13:54 48.49572 17.46353 36977 ft 453 kts 156°
2026-04-25 13:54 48.44009 17.50924 36973 ft 453 kts 156°
2026-04-25 13:55 48.38483 17.55454 36970 ft 452 kts 156°
2026-04-25 13:55 48.32952 17.59977 36969 ft 452 kts 156°
2026-04-25 13:56 48.27389 17.64515 36966 ft 452 kts 156°
2026-04-25 13:56 48.21847 17.69025 36931 ft 451 kts 157°
2026-04-25 13:56 48.19075 17.71276 37232 ft 452 kts 157°
2026-04-25 13:57 48.16325 17.73506 37061 ft 450 kts 157°
2026-04-25 13:57 48.10783 17.77991 36977 ft 450 kts 157°
2026-04-25 13:58 48.05273 17.82438 36973 ft 450 kts 157°
2026-04-25 13:58 47.99733 17.86900 36979 ft 450 kts 157°
2026-04-25 13:59 47.94256 17.91393 36976 ft 453 kts 152°
2026-04-25 13:59 47.89064 17.96779 36983 ft 455 kts 148°
2026-04-25 14:00 47.85592 18.00509 36983 ft 455 kts 149°
2026-04-25 14:00 47.78727 18.07784 36984 ft 455 kts 149°
2026-04-25 14:01 47.73540 18.13227 36982 ft 454 kts 149°
2026-04-25 14:01 47.68354 18.18644 36985 ft 455 kts 149°
2026-04-25 14:02 47.63170 18.24046 36986 ft 454 kts 149°
2026-04-25 14:02 47.58023 18.29393 36990 ft 454 kts 149°
2026-04-25 14:03 47.52821 18.34784 36990 ft 454 kts 149°
2026-04-25 14:03 47.47639 18.40143 36992 ft 454 kts 149°
2026-04-25 14:04 47.42435 18.45507 36993 ft 454 kts 149°
2026-04-25 14:04 47.37241 18.50849 36992 ft 454 kts 149°
2026-04-25 14:05 47.32084 18.56142 36992 ft 453 kts 149°
2026-04-25 14:05 47.26878 18.61471 36991 ft 453 kts 148°
2026-04-25 14:06 47.21671 18.66790 36990 ft 453 kts 149°
2026-04-25 14:06 47.16513 18.72046 36989 ft 452 kts 149°
2026-04-25 14:07 47.11322 18.77319 36989 ft 453 kts 149°
2026-04-25 14:07 47.06116 18.82598 36987 ft 453 kts 149°
2026-04-25 14:08 47.00940 18.87834 36991 ft 452 kts 149°
2026-04-25 14:08 46.95746 18.93076 36985 ft 452 kts 149°
2026-04-25 14:09 46.90569 18.98286 36982 ft 452 kts 149°
2026-04-25 14:09 46.85353 19.03523 36978 ft 452 kts 149°
2026-04-25 14:10 46.80157 19.08727 36981 ft 453 kts 149°
2026-04-25 14:10 46.74934 19.13948 36984 ft 453 kts 149°
2026-04-25 14:11 46.69719 19.19148 36988 ft 453 kts 149°
2026-04-25 14:11 46.64538 19.24302 36986 ft 452 kts 149°
2026-04-25 14:12 46.59326 19.29474 36990 ft 452 kts 149°
2026-04-25 14:12 46.54108 19.34639 36989 ft 452 kts 149°
2026-04-25 14:13 46.48928 19.39756 36990 ft 453 kts 149°
2026-04-25 14:13 46.43721 19.44888 36992 ft 453 kts 149°
2026-04-25 14:14 46.38495 19.50027 36995 ft 453 kts 148°
2026-04-25 14:14 46.33257 19.55165 36995 ft 453 kts 148°
2026-04-25 14:15 46.28038 19.60278 36991 ft 452 kts 148°
2026-04-25 14:15 46.22816 19.65373 36985 ft 452 kts 149°
2026-04-25 14:16 46.17484 19.70245 36988 ft 450 kts 155°
2026-04-25 14:16 46.11879 19.74299 36990 ft 449 kts 158°
2026-04-25 14:17 46.06257 19.78231 36988 ft 449 kts 158°
2026-04-25 14:17 46.00620 19.82182 36988 ft 448 kts 158°
2026-04-25 14:18 45.95008 19.86115 36985 ft 448 kts 158°
2026-04-25 14:18 45.89380 19.90051 36985 ft 448 kts 158°
2026-04-25 14:19 45.83746 19.93980 36984 ft 449 kts 157°
2026-04-25 14:19 45.78112 19.97902 36985 ft 449 kts 157°
2026-04-25 14:20 45.72496 20.01806 36989 ft 449 kts 157°
2026-04-25 14:20 45.66870 20.05706 36993 ft 449 kts 157°
2026-04-25 14:21 45.61242 20.09600 36995 ft 448 kts 157°
2026-04-25 14:21 45.55635 20.13471 36999 ft 448 kts 157°
2026-04-25 14:22 45.50020 20.17339 36998 ft 448 kts 157°
2026-04-25 14:22 45.44398 20.21202 37000 ft 448 kts 156°
2026-04-25 14:23 45.38759 20.25066 37000 ft 447 kts 156°
2026-04-25 14:23 45.33167 20.28887 37005 ft 447 kts 156°
2026-04-25 14:24 45.27526 20.32739 37008 ft 447 kts 156°
2026-04-25 14:24 45.21910 20.36566 37014 ft 447 kts 156°
2026-04-25 14:25 45.16287 20.40390 37015 ft 446 kts 156°
2026-04-25 14:25 45.10690 20.44188 37019 ft 446 kts 156°
2026-04-25 14:26 45.05087 20.47982 37016 ft 446 kts 156°
2026-04-25 14:26 44.99474 20.51775 37022 ft 446 kts 156°
2026-04-25 14:27 44.93823 20.55585 37024 ft 445 kts 156°
2026-04-25 14:27 44.88220 20.59354 37024 ft 445 kts 156°
2026-04-25 14:28 44.82592 20.63132 37027 ft 445 kts 156°
2026-04-25 14:28 44.76998 20.66877 37026 ft 445 kts 156°
2026-04-25 14:29 44.71354 20.70648 37026 ft 446 kts 156°
2026-04-25 14:29 44.65732 20.74400 37027 ft 446 kts 156°
2026-04-25 14:30 44.60141 20.78123 37029 ft 445 kts 156°
2026-04-25 14:30 44.51727 20.83706 37032 ft 445 kts 156°
2026-04-25 14:31 44.46104 20.87428 37032 ft 445 kts 156°
2026-04-25 14:31 44.40517 20.91118 37028 ft 445 kts 155°
2026-04-25 14:32 44.34908 20.94813 37025 ft 445 kts 155°
2026-04-25 14:32 44.29288 20.98512 37024 ft 444 kts 155°
2026-04-25 14:33 44.23683 21.02190 37026 ft 443 kts 155°
2026-04-25 14:33 44.18068 21.05867 37029 ft 444 kts 155°
2026-04-25 14:34 44.12455 21.09535 37032 ft 444 kts 155°
2026-04-25 14:34 44.06881 21.13171 37032 ft 444 kts 155°
2026-04-25 14:35 44.01293 21.16806 37031 ft 444 kts 155°
2026-04-25 14:35 43.95665 21.20461 37030 ft 443 kts 155°
2026-04-25 14:36 43.90113 21.24058 37030 ft 442 kts 155°
2026-04-25 14:36 43.84491 21.27694 37028 ft 442 kts 155°
2026-04-25 14:37 43.78885 21.31312 37030 ft 443 kts 154°
2026-04-25 14:37 43.73288 21.34918 37033 ft 443 kts 154°
2026-04-25 14:38 43.67667 21.38530 37036 ft 442 kts 154°
2026-04-25 14:38 43.62104 21.42098 37035 ft 441 kts 154°
2026-04-25 14:39 43.56481 21.45694 37037 ft 441 kts 154°
2026-04-25 14:39 43.50903 21.49256 37038 ft 441 kts 154°
2026-04-25 14:40 43.45347 21.52798 37040 ft 441 kts 154°
2026-04-25 14:40 43.39732 21.56369 37039 ft 441 kts 154°
2026-04-25 14:41 43.34151 21.59911 37036 ft 441 kts 154°
2026-04-25 14:41 43.28592 21.63434 37039 ft 440 kts 154°
2026-04-25 14:42 43.23891 21.66406 37036 ft 439 kts 154°
2026-04-25 14:42 43.17388 21.70512 37039 ft 439 kts 154°
2026-04-25 14:43 43.11823 21.74016 37039 ft 439 kts 154°
2026-04-25 14:43 43.06279 21.77501 37036 ft 439 kts 154°
2026-04-25 14:44 43.00722 21.80986 37035 ft 438 kts 154°
2026-04-25 14:44 42.95186 21.84450 37035 ft 438 kts 154°
2026-04-25 14:45 42.89631 21.87921 37042 ft 438 kts 154°
2026-04-25 14:45 42.84070 21.91391 37045 ft 438 kts 154°
2026-04-25 14:46 42.78498 21.94858 37050 ft 438 kts 154°
2026-04-25 14:46 42.72985 21.98283 37051 ft 438 kts 154°
2026-04-25 14:47 42.68344 22.01160 37050 ft 437 kts 154°
2026-04-25 14:47 42.61899 22.05146 37050 ft 437 kts 153°
2026-04-25 14:48 42.56324 22.08591 37052 ft 438 kts 153°
2026-04-25 14:48 42.50795 22.12000 37050 ft 437 kts 153°
2026-04-25 14:49 42.45223 22.15432 37051 ft 437 kts 153°
2026-04-25 14:49 42.39679 22.18838 37053 ft 437 kts 153°
2026-04-25 14:50 42.34128 22.22152 37051 ft 437 kts 156°
2026-04-25 14:50 42.28301 22.24704 37051 ft 439 kts 164°
2026-04-25 14:51 42.22318 22.26299 37048 ft 440 kts 168°
2026-04-25 14:51 42.16263 22.27702 37049 ft 439 kts 168°
2026-04-25 14:52 42.10262 22.29103 37046 ft 439 kts 168°
2026-04-25 14:52 42.05212 22.30286 37046 ft 439 kts 168°
2026-04-25 14:53 41.98188 22.31932 37043 ft 439 kts 168°
2026-04-25 14:53 41.92135 22.33350 37045 ft 438 kts 167°
2026-04-25 14:54 41.86085 22.34765 37044 ft 439 kts 168°
2026-04-25 14:54 41.80053 22.36170 37042 ft 438 kts 167°
2026-04-25 14:55 41.74055 22.37565 37040 ft 437 kts 167°
2026-04-25 14:55 41.68051 22.38960 37039 ft 437 kts 167°
2026-04-25 14:56 41.62024 22.40358 37039 ft 438 kts 167°
2026-04-25 14:56 41.56034 22.41746 37040 ft 438 kts 167°
2026-04-25 14:57 41.50029 22.43132 37036 ft 437 kts 167°
2026-04-25 14:57 41.44025 22.44518 37036 ft 437 kts 167°
2026-04-25 14:58 41.38014 22.45902 37031 ft 436 kts 167°
2026-04-25 14:58 41.32014 22.47280 37027 ft 436 kts 167°
2026-04-25 14:59 41.26051 22.48650 37016 ft 436 kts 166°
2026-04-25 14:59 41.20055 22.50029 37005 ft 436 kts 166°
2026-04-25 15:00 41.14182 22.51941 37003 ft 432 kts 158°
2026-04-25 15:00 41.08624 22.54776 37002 ft 428 kts 150°
2026-04-25 15:01 41.03330 22.58414 37006 ft 426 kts 147°
2026-04-25 15:01 40.98140 22.62130 37006 ft 425 kts 147°
2026-04-25 15:02 40.92905 22.65857 37007 ft 425 kts 148°
2026-04-25 15:02 40.87662 22.69577 36708 ft 424 kts 148°
2026-04-25 15:03 40.82412 22.73290 36923 ft 426 kts 148°
2026-04-25 15:03 40.77210 22.76962 37012 ft 426 kts 148°
2026-04-25 15:04 40.71954 22.80665 37026 ft 426 kts 148°
2026-04-25 15:04 40.66750 22.84326 37028 ft 426 kts 148°
2026-04-25 15:05 40.61501 22.88012 37027 ft 426 kts 148°
2026-04-25 15:06 40.53637 22.93525 37030 ft 425 kts 148°
2026-04-25 15:06 40.48367 22.97207 37025 ft 425 kts 148°
2026-04-25 15:07 40.42962 23.00450 37016 ft 428 kts 155°
2026-04-25 15:07 40.37350 23.03242 37014 ft 428 kts 155°
2026-04-25 15:08 40.31765 23.06015 37014 ft 428 kts 155°
2026-04-25 15:08 40.26193 23.08783 37015 ft 427 kts 155°
2026-04-25 15:09 40.20609 23.11554 37015 ft 427 kts 155°
2026-04-25 15:09 40.12222 23.15710 37015 ft 426 kts 155°
2026-04-25 15:10 40.06656 23.18455 37012 ft 426 kts 155°
2026-04-25 15:11 39.98315 23.22565 37009 ft 425 kts 155°
2026-04-25 15:11 39.92735 23.25310 37013 ft 425 kts 155°
2026-04-25 15:12 39.84377 23.29409 37014 ft 426 kts 155°
2026-04-25 15:12 39.80658 23.31233 37016 ft 426 kts 155°
2026-04-25 15:13 39.70458 23.36216 37013 ft 426 kts 155°
2026-04-25 15:14 39.64882 23.38928 37014 ft 426 kts 155°
2026-04-25 15:14 39.59289 23.41647 37018 ft 426 kts 155°
2026-04-25 15:15 39.53725 23.44349 37019 ft 426 kts 155°
2026-04-25 15:15 39.48146 23.47056 37019 ft 425 kts 155°
2026-04-25 15:16 39.42594 23.49742 37018 ft 425 kts 155°
2026-04-25 15:16 39.34248 23.53783 37023 ft 425 kts 155°
2026-04-25 15:17 39.25908 23.57809 37024 ft 424 kts 155°
2026-04-25 15:18 39.20329 23.60488 37022 ft 425 kts 155°
2026-04-25 15:18 39.11937 23.64255 37026 ft 426 kts 157°
2026-04-25 15:19 39.08179 23.65845 37032 ft 426 kts 158°
2026-04-25 15:19 39.00701 23.69030 37029 ft 424 kts 158°
2026-04-25 15:20 38.95060 23.71440 37028 ft 424 kts 158°
2026-04-25 15:20 38.89443 23.73839 37024 ft 425 kts 158°
2026-04-25 15:21 38.83790 23.76251 37034 ft 425 kts 158°
2026-04-25 15:21 38.78164 23.78647 37032 ft 425 kts 158°
2026-04-25 15:22 38.72557 23.81032 37016 ft 424 kts 158°
2026-04-25 15:22 38.66942 23.83419 37020 ft 425 kts 158°
2026-04-25 15:23 38.61286 23.85816 37022 ft 427 kts 158°
2026-04-25 15:23 38.55637 23.88204 37032 ft 428 kts 158°
2026-04-25 15:24 38.49994 23.90588 37027 ft 427 kts 158°
2026-04-25 15:24 38.45264 23.92582 37029 ft 427 kts 158°
2026-04-25 15:25 38.38666 23.95363 37041 ft 427 kts 159°
2026-04-25 15:25 38.33026 23.97734 37027 ft 426 kts 159°
2026-04-25 15:26 38.27369 24.00107 37018 ft 427 kts 159°
2026-04-25 15:26 38.21740 24.02466 37023 ft 427 kts 159°
2026-04-25 15:27 38.16045 24.04848 37045 ft 427 kts 159°
2026-04-25 15:28 38.07556 24.08391 37034 ft 425 kts 159°
2026-04-25 15:28 38.01928 24.10738 37013 ft 425 kts 159°
2026-04-25 15:29 37.96275 24.13089 37010 ft 426 kts 159°
2026-04-25 15:29 37.90605 24.15444 37004 ft 426 kts 159°
2026-04-25 15:30 37.84945 24.17792 37036 ft 426 kts 159°
2026-04-25 15:30 37.79320 24.20121 37030 ft 426 kts 159°
2026-04-25 15:31 37.73686 24.22451 37012 ft 426 kts 159°
2026-04-25 15:31 37.68048 24.24781 36985 ft 426 kts 159°
2026-04-25 15:32 37.62382 24.27115 36997 ft 427 kts 159°
2026-04-25 15:32 37.56810 24.29722 36989 ft 425 kts 154°
2026-04-25 15:33 37.49042 24.35054 36988 ft 425 kts 145°
2026-04-25 15:33 37.44007 24.39026 36985 ft 425 kts 146°
2026-04-25 15:34 37.38982 24.42977 36987 ft 426 kts 146°
2026-04-25 15:34 37.34806 24.46251 36988 ft 426 kts 146°
2026-04-25 15:35 37.26410 24.52818 36967 ft 426 kts 146°
2026-04-25 15:36 37.18934 24.58650 36969 ft 427 kts 146°
2026-04-25 15:36 37.13855 24.62606 36968 ft 426 kts 146°
2026-04-25 15:37 37.08827 24.66514 36951 ft 426 kts 147°
2026-04-25 15:37 37.03762 24.70447 37043 ft 426 kts 147°
2026-04-25 15:38 36.98701 24.74370 36833 ft 426 kts 147°
2026-04-25 15:38 36.96209 24.76300 36541 ft 424 kts 146°
2026-04-25 15:38 36.93690 24.78244 36060 ft 423 kts 146°
2026-04-25 15:39 36.91177 24.80186 35480 ft 425 kts 146°
2026-04-25 15:39 36.88629 24.82156 34860 ft 427 kts 146°
2026-04-25 15:39 36.86095 24.84116 34231 ft 429 kts 146°
2026-04-25 15:39 36.83541 24.86091 33613 ft 430 kts 146°
2026-04-25 15:40 36.80973 24.88073 32953 ft 432 kts 145°
2026-04-25 15:40 36.80113 24.88737 32736 ft 432 kts 145°
2026-04-25 15:40 36.75864 24.92020 31640 ft 433 kts 144°
2026-04-25 15:40 36.73298 24.93999 30984 ft 434 kts 144°
2026-04-25 15:41 36.70742 24.95968 30297 ft 434 kts 144°
2026-04-25 15:41 36.68164 24.97949 29586 ft 433 kts 144°
2026-04-25 15:41 36.65596 24.99916 28879 ft 431 kts 144°
2026-04-25 15:41 36.63042 25.01870 28327 ft 426 kts 143°
2026-04-25 15:42 36.60555 25.03772 27885 ft 419 kts 143°
2026-04-25 15:42 36.58074 25.05668 27435 ft 413 kts 143°
2026-04-25 15:42 36.55626 25.07541 26987 ft 407 kts 143°
2026-04-25 15:42 36.53243 25.09361 26550 ft 402 kts 143°
2026-04-25 15:43 36.50868 25.11176 26107 ft 397 kts 143°
2026-04-25 15:43 36.48521 25.12968 25665 ft 393 kts 143°
2026-04-25 15:43 36.46222 25.14723 25232 ft 388 kts 143°
2026-04-25 15:43 36.43923 25.16476 24798 ft 384 kts 143°
2026-04-25 15:44 36.41652 25.18206 24365 ft 380 kts 142°
2026-04-25 15:44 36.39407 25.19918 23937 ft 376 kts 142°
2026-04-25 15:44 36.37175 25.21615 23501 ft 373 kts 142°
2026-04-25 15:44 36.34987 25.23280 23077 ft 370 kts 142°
2026-04-25 15:45 36.32799 25.24948 22650 ft 367 kts 142°
2026-04-25 15:45 36.30616 25.26610 22216 ft 364 kts 142°
2026-04-25 15:45 36.28463 25.28245 21793 ft 361 kts 143°
2026-04-25 15:45 36.27767 25.28774 21656 ft 361 kts 143°
2026-04-25 15:46 36.24222 25.31463 20953 ft 356 kts 143°
2026-04-25 15:46 36.22113 25.33063 20530 ft 353 kts 143°
2026-04-25 15:46 36.20011 25.34653 20111 ft 351 kts 143°
2026-04-25 15:46 36.17920 25.36236 19686 ft 348 kts 143°
2026-04-25 15:47 36.15853 25.37798 19281 ft 346 kts 143°
2026-04-25 15:47 36.13804 25.39288 18881 ft 345 kts 147°
2026-04-25 15:47 36.11631 25.40595 18459 ft 345 kts 152°
2026-04-25 15:47 36.09403 25.41660 18017 ft 346 kts 156°
2026-04-25 15:48 36.07113 25.42593 17597 ft 344 kts 157°
2026-04-25 15:48 36.04823 25.43511 17177 ft 342 kts 157°
2026-04-25 15:48 36.02586 25.44407 16770 ft 340 kts 158°
2026-04-25 15:48 36.00338 25.45309 16351 ft 338 kts 158°
2026-04-25 15:49 35.98117 25.46201 15939 ft 336 kts 158°
2026-04-25 15:49 35.95891 25.47095 15522 ft 334 kts 158°
2026-04-25 15:49 35.93700 25.47974 15113 ft 331 kts 158°
2026-04-25 15:49 35.91503 25.48857 14701 ft 329 kts 158°
2026-04-25 15:50 35.89330 25.49730 14291 ft 326 kts 158°
2026-04-25 15:50 35.87168 25.50599 13882 ft 324 kts 158°
2026-04-25 15:50 35.85027 25.51458 13472 ft 322 kts 158°
2026-04-25 15:50 35.82889 25.52315 13054 ft 320 kts 158°
2026-04-25 15:51 35.80774 25.53164 12638 ft 318 kts 158°
2026-04-25 15:51 35.79395 25.53716 12370 ft 317 kts 158°
2026-04-25 15:51 35.76601 25.54835 11824 ft 315 kts 158°
2026-04-25 15:51 35.74524 25.55664 11422 ft 312 kts 158°
2026-04-25 15:52 35.72452 25.56492 11018 ft 310 kts 158°
2026-04-25 15:52 35.70434 25.57385 10614 ft 305 kts 151°
2026-04-25 15:52 35.68572 25.58634 10224 ft 299 kts 142°
2026-04-25 15:52 35.66951 25.60123 10096 ft 284 kts 138°
2026-04-25 15:53 35.65447 25.61605 9979 ft 271 kts 137°
2026-04-25 15:53 35.64003 25.63040 9806 ft 262 kts 137°
2026-04-25 15:53 35.62584 25.64452 9437 ft 261 kts 137°
2026-04-25 15:53 35.61042 25.65603 9102 ft 265 kts 159°
2026-04-25 15:54 35.59167 25.65770 8776 ft 274 kts 186°
2026-04-25 15:54 35.57419 25.64862 8466 ft 282 kts 213°
2026-04-25 15:54 35.56142 25.63010 8154 ft 289 kts 240°
2026-04-25 15:54 35.55377 25.60702 7839 ft 289 kts 246°
2026-04-25 15:55 35.54631 25.58439 7509 ft 288 kts 243°
2026-04-25 15:55 35.53743 25.56216 7183 ft 287 kts 239°
2026-04-25 15:55 35.52766 25.54082 6849 ft 285 kts 236°
2026-04-25 15:55 35.51737 25.52026 6529 ft 285 kts 236°
2026-04-25 15:56 35.50678 25.49974 6194 ft 285 kts 236°
2026-04-25 15:56 35.49605 25.47925 5861 ft 284 kts 236°
2026-04-25 15:56 35.48537 25.45896 5538 ft 283 kts 237°
2026-04-25 15:56 35.47467 25.43859 5209 ft 281 kts 236°
2026-04-25 15:57 35.46411 25.41909 4860 ft 272 kts 229°
2026-04-25 15:57 35.44952 25.40592 4522 ft 256 kts 193°
2026-04-25 15:57 35.43254 25.40390 4214 ft 237 kts 164°
2026-04-25 15:57 35.41774 25.41075 3942 ft 217 kts 144°
2026-04-25 15:58 35.40535 25.41978 3880 ft 203 kts 143°
2026-04-25 15:58 35.39362 25.42838 3933 ft 186 kts 143°
2026-04-25 15:58 35.38285 25.43601 3843 ft 171 kts 147°
2026-04-25 15:58 35.37087 25.43948 3798 ft 188 kts 179°
2026-04-25 15:59 35.35819 25.43392 3740 ft 197 kts 216°
2026-04-25 15:59 35.34974 25.42089 3568 ft 201 kts 243°
2026-04-25 15:59 35.34391 25.40536 3345 ft 197 kts 249°
2026-04-25 15:59 35.33856 25.38974 3165 ft 197 kts 249°
2026-04-25 16:00 35.33316 25.37448 3089 ft 196 kts 248°
2026-04-25 16:00 35.33136 25.36938 3040 ft 194 kts 253°
2026-04-25 16:00 35.32849 25.34341 2777 ft 174 kts 276°
2026-04-25 16:00 35.32923 25.32888 2537 ft 168 kts 280°
2026-04-25 16:01 35.33036 25.31473 2279 ft 165 kts 281°
2026-04-25 16:01 35.33143 25.30102 2040 ft 162 kts 280°
2026-04-25 16:01 35.33238 25.28738 1800 ft 157 kts 280°
2026-04-25 16:01 35.33322 25.27440 1551 ft 147 kts 279°
2026-04-25 16:02 35.33406 25.26191 1355 ft 145 kts 279°
2026-04-25 16:02 35.33489 25.24974 1130 ft 144 kts 278°
2026-04-25 16:02 35.33572 25.23762 920 ft 142 kts 278°
2026-04-25 16:02 35.33654 25.22553 717 ft 147 kts 277°
2026-04-25 16:03 35.33741 25.21256 1209 ft 152 kts 278°
2026-04-25 16:03 35.33823 25.20002 1838 ft 151 kts 280°
2026-04-25 16:03 35.33954 25.18673 2277 ft 162 kts 292°
2026-04-25 16:03 35.34650 25.17638 2664 ft 162 kts 340°
2026-04-25 16:04 35.35777 25.17540 2959 ft 171 kts 15°
2026-04-25 16:04 35.36944 25.17912 2974 ft 175 kts 16°
2026-04-25 16:04 35.38137 25.18245 2975 ft 174 kts 14°
2026-04-25 16:04 35.39331 25.18565 2975 ft 174 kts 14°
2026-04-25 16:05 35.40526 25.18879 2977 ft 174 kts 15°
2026-04-25 16:05 35.41711 25.19187 2980 ft 173 kts 15°
2026-04-25 16:05 35.44078 25.19812 2989 ft 173 kts 17°
2026-04-25 16:06 35.45137 25.20460 2981 ft 171 kts 41°
2026-04-25 16:06 35.45842 25.21634 2988 ft 177 kts 65°
2026-04-25 16:06 35.46072 25.23229 2927 ft 201 kts 89°
2026-04-25 16:06 35.45963 25.24969 2944 ft 207 kts 91°
2026-04-25 16:07 35.45834 25.26753 3293 ft 216 kts 91°
2026-04-25 16:07 35.45790 25.27359 3591 ft 216 kts 91°
2026-04-25 16:07 35.45574 25.30374 4686 ft 211 kts 92°
2026-04-25 16:07 35.45449 25.32152 4960 ft 210 kts 93°
2026-04-25 16:08 35.45318 25.33935 4963 ft 209 kts 92°
2026-04-25 16:08 35.45190 25.35743 4958 ft 208 kts 93°
2026-04-25 16:08 35.45068 25.37510 4967 ft 209 kts 92°
2026-04-25 16:08 35.44942 25.39306 4963 ft 209 kts 91°
2026-04-25 16:09 35.45162 25.41047 4955 ft 208 kts 62°
2026-04-25 16:09 35.45978 25.42527 4977 ft 208 kts 57°
2026-04-25 16:09 35.46788 25.43991 4969 ft 209 kts 57°
2026-04-25 16:09 35.47593 25.45492 4971 ft 209 kts 57°
2026-04-25 16:10 35.48607 25.46765 4963 ft 213 kts 31°
2026-04-25 16:10 35.50063 25.47217 4964 ft 222 kts
2026-04-25 16:10 35.51584 25.46706 4963 ft 233 kts 333°
2026-04-25 16:10 35.52726 25.45284 4958 ft 244 kts 300°
2026-04-25 16:11 35.53107 25.43233 4958 ft 251 kts 264°
2026-04-25 16:11 35.52509 25.41231 4971 ft 250 kts 227°
2026-04-25 16:11 35.51155 25.39987 4985 ft 244 kts 193°
2026-04-25 16:11 35.49479 25.39846 5267 ft 242 kts 161°
2026-04-25 16:12 35.47886 25.40347 6087 ft 238 kts 164°
2026-04-25 16:12 35.46215 25.40219 6656 ft 248 kts 197°
2026-04-25 16:12 35.44842 25.38929 6943 ft 256 kts 235°
2026-04-25 16:12 35.44327 25.37605 6972 ft 259 kts 255°
2026-04-25 16:13 35.44527 25.34750 6967 ft 253 kts 304°
2026-04-25 16:13 35.45634 25.33163 6981 ft 247 kts 321°
2026-04-25 16:13 35.46904 25.31685 7096 ft 256 kts 321°
2026-04-25 16:13 35.48186 25.30146 7840 ft 260 kts 319°
2026-04-25 16:14 35.49446 25.28607 8833 ft 255 kts 319°
2026-04-25 16:14 35.50702 25.27064 9623 ft 258 kts 319°
2026-04-25 16:14 35.51974 25.25493 10354 ft 263 kts 318°
2026-04-25 16:14 35.53270 25.23885 11092 ft 266 kts 318°
2026-04-25 16:15 35.54572 25.22262 11854 ft 268 kts 318°
2026-04-25 16:15 35.55882 25.20633 12616 ft 269 kts 318°
2026-04-25 16:15 35.57184 25.19011 13337 ft 271 kts 318°
2026-04-25 16:15 35.58516 25.17353 14055 ft 273 kts 318°
2026-04-25 16:16 35.59853 25.15683 14752 ft 276 kts 319°
2026-04-25 16:16 35.61190 25.14017 15410 ft 278 kts 319°
2026-04-25 16:16 35.62569 25.12297 15936 ft 288 kts 319°
2026-04-25 16:16 35.64023 25.10489 16258 ft 304 kts 319°
2026-04-25 16:17 35.65559 25.08575 16568 ft 321 kts 319°
2026-04-25 16:17 35.67149 25.06589 16889 ft 337 kts 319°
2026-04-25 16:17 35.68813 25.04507 17417 ft 344 kts 318°
2026-04-25 16:17 35.70523 25.02418 18184 ft 341 kts 323°
2026-04-25 16:18 35.72378 25.00774 19039 ft 324 kts 336°
2026-04-25 16:18 35.73045 25.00339 19263 ft 320 kts 340°
2026-04-25 16:18 35.76436 24.98670 19891 ft 313 kts 345°
2026-04-25 16:18 35.78492 24.97738 19908 ft 312 kts 345°
2026-04-25 16:19 35.80510 24.96816 19909 ft 312 kts 345°
2026-04-25 16:19 35.82556 24.95870 19916 ft 312 kts 345°
2026-04-25 16:19 35.84590 24.94922 19925 ft 313 kts 345°
2026-04-25 16:20 35.88704 24.92994 19920 ft 313 kts 345°
2026-04-25 16:20 35.90733 24.92036 19923 ft 313 kts 345°
2026-04-25 16:20 35.94829 24.90101 19931 ft 314 kts 345°
2026-04-25 16:21 35.96860 24.89144 19932 ft 315 kts 345°
2026-04-25 16:21 35.98914 24.88172 19932 ft 315 kts 345°
2026-04-25 16:21 36.00982 24.87194 19933 ft 316 kts 345°
2026-04-25 16:21 36.03047 24.86217 19931 ft 317 kts 345°
2026-04-25 16:22 36.05121 24.85235 19929 ft 317 kts 345°
2026-04-25 16:22 36.07173 24.84265 19927 ft 317 kts 345°
2026-04-25 16:22 36.09246 24.83285 19929 ft 317 kts 345°
2026-04-25 16:22 36.11292 24.82317 19928 ft 317 kts 345°
2026-04-25 16:23 36.13369 24.81335 19928 ft 317 kts 345°
2026-04-25 16:23 36.15418 24.80364 19930 ft 317 kts 345°
2026-04-25 16:23 36.17487 24.79382 19933 ft 317 kts 345°
2026-04-25 16:23 36.19557 24.78400 19935 ft 318 kts 345°
2026-04-25 16:24 36.21608 24.77426 19938 ft 318 kts 345°
2026-04-25 16:24 36.23627 24.76466 19938 ft 318 kts 345°
2026-04-25 16:24 36.25677 24.75489 19939 ft 318 kts 345°
2026-04-25 16:24 36.27746 24.74506 19939 ft 317 kts 345°
2026-04-25 16:25 36.29828 24.73513 19938 ft 317 kts 345°
2026-04-25 16:25 36.31184 24.72866 19936 ft 317 kts 345°
2026-04-25 16:25 36.33943 24.71551 19938 ft 317 kts 345°
2026-04-25 16:25 36.36006 24.70568 19942 ft 317 kts 345°
2026-04-25 16:26 36.38052 24.69592 19942 ft 317 kts 345°
2026-04-25 16:26 36.40116 24.68607 19945 ft 318 kts 345°
2026-04-25 16:26 36.42196 24.67613 19945 ft 318 kts 345°
2026-04-25 16:26 36.44262 24.66625 19946 ft 318 kts 345°
2026-04-25 16:27 36.46318 24.65640 19945 ft 318 kts 345°
2026-04-25 16:27 36.48392 24.64648 19943 ft 317 kts 345°
2026-04-25 16:27 36.50462 24.63656 19943 ft 317 kts 345°
2026-04-25 16:27 36.52520 24.62669 19944 ft 318 kts 345°
2026-04-25 16:28 36.54595 24.61675 19942 ft 317 kts 345°
2026-04-25 16:28 36.56658 24.60685 19944 ft 317 kts 345°
2026-04-25 16:28 36.58704 24.59702 19947 ft 317 kts 345°
2026-04-25 16:28 36.60782 24.58703 19947 ft 317 kts 345°
2026-04-25 16:29 36.62854 24.57707 19946 ft 317 kts 345°
2026-04-25 16:29 36.64925 24.56711 19948 ft 318 kts 345°
2026-04-25 16:29 36.66971 24.55727 19949 ft 318 kts 345°
2026-04-25 16:29 36.69049 24.54725 19952 ft 318 kts 345°
2026-04-25 16:30 36.71123 24.53724 19950 ft 318 kts 345°
2026-04-25 16:30 36.73172 24.52737 19952 ft 317 kts 346°
2026-04-25 16:30 36.75288 24.51868 19952 ft 315 kts 351°
2026-04-25 16:30 36.77402 24.51237 19954 ft 313 kts 354°
2026-04-25 16:31 36.79534 24.50661 19954 ft 313 kts 354°
2026-04-25 16:31 36.81658 24.50094 19953 ft 312 kts 354°
2026-04-25 16:31 36.83795 24.49522 19954 ft 313 kts 354°
2026-04-25 16:31 36.85919 24.48950 19956 ft 313 kts 353°
2026-04-25 16:32 36.88058 24.48370 19957 ft 313 kts 354°
2026-04-25 16:32 36.90208 24.47786 19959 ft 313 kts 354°
2026-04-25 16:32 36.92343 24.47206 19961 ft 313 kts 354°
2026-04-25 16:32 36.94478 24.46625 19966 ft 313 kts 353°
2026-04-25 16:33 36.96615 24.46043 19964 ft 313 kts 354°
2026-04-25 16:33 36.98760 24.45458 19963 ft 314 kts 353°
2026-04-25 16:33 37.00905 24.44875 19963 ft 314 kts 354°
2026-04-25 16:33 37.03038 24.44292 19965 ft 314 kts 354°
2026-04-25 16:34 37.05194 24.43704 19967 ft 314 kts 354°
2026-04-25 16:34 37.07320 24.43125 19968 ft 314 kts 353°
2026-04-25 16:34 37.09486 24.42534 19971 ft 315 kts 353°
2026-04-25 16:34 37.11623 24.41953 19974 ft 315 kts 353°
2026-04-25 16:35 37.13789 24.41367 19975 ft 315 kts 353°
2026-04-25 16:35 37.15921 24.40788 19977 ft 315 kts 353°
2026-04-25 16:35 37.18086 24.40199 19977 ft 315 kts 353°
2026-04-25 16:35 37.20215 24.39620 19977 ft 315 kts 353°
2026-04-25 16:36 37.22345 24.39040 19975 ft 314 kts 353°
2026-04-25 16:36 37.23089 24.38837 19975 ft 314 kts 353°
2026-04-25 16:36 37.26636 24.37871 19835 ft 310 kts 353°
2026-04-25 16:36 37.28733 24.37299 19355 ft 312 kts 353°
2026-04-25 16:37 37.30888 24.36712 18815 ft 315 kts 353°
2026-04-25 16:37 37.33017 24.36131 18323 ft 317 kts 353°
2026-04-25 16:37 37.35189 24.35537 17845 ft 317 kts 352°
2026-04-25 16:37 37.37335 24.34950 17363 ft 319 kts 352°
2026-04-25 16:38 37.39522 24.34351 16858 ft 320 kts 352°
2026-04-25 16:38 37.41694 24.33755 16462 ft 317 kts 351°
2026-04-25 16:38 37.43848 24.33162 16064 ft 315 kts 351°
2026-04-25 16:38 37.45994 24.32573 15646 ft 314 kts 351°
2026-04-25 16:39 37.48140 24.31985 15230 ft 312 kts 351°
2026-04-25 16:39 37.50244 24.31407 14830 ft 311 kts 351°
2026-04-25 16:39 37.52323 24.30577 14392 ft 314 kts 335°
2026-04-25 16:39 37.54063 24.28883 13965 ft 319 kts 313°
2026-04-25 16:40 37.55229 24.26528 13550 ft 321 kts 292°
2026-04-25 16:40 37.55680 24.23762 13144 ft 321 kts 271°
2026-04-25 16:40 37.55627 24.20983 12771 ft 319 kts 267°
2026-04-25 16:40 37.55512 24.18191 12384 ft 318 kts 266°
2026-04-25 16:41 37.55401 24.15418 12008 ft 315 kts 267°
2026-04-25 16:41 37.55335 24.13580 11758 ft 314 kts 267°
2026-04-25 16:41 37.55141 24.07217 10879 ft 310 kts 268°
2026-04-25 16:42 37.55067 24.04507 10521 ft 307 kts 268°
2026-04-25 16:42 37.54997 24.01859 10161 ft 305 kts 268°
2026-04-25 16:42 37.54926 23.99180 9793 ft 303 kts 268°
2026-04-25 16:42 37.54855 23.96540 9423 ft 301 kts 268°
2026-04-25 16:43 37.54783 23.93940 9042 ft 299 kts 267°
2026-04-25 16:43 37.54744 23.91305 8650 ft 298 kts 274°
2026-04-25 16:43 37.55302 23.88842 8130 ft 292 kts 304°
2026-04-25 16:43 37.56697 23.87089 7490 ft 286 kts 329°
2026-04-25 16:44 37.58361 23.85752 6832 ft 283 kts 330°
2026-04-25 16:44 37.60046 23.84407 6303 ft 283 kts 329°
2026-04-25 16:44 37.61668 23.83071 5968 ft 279 kts 329°
2026-04-25 16:44 37.63267 23.81724 5755 ft 270 kts 329°
2026-04-25 16:45 37.64806 23.80414 5581 ft 261 kts 328°
2026-04-25 16:45 37.66289 23.79143 5410 ft 253 kts 328°
2026-04-25 16:45 37.67731 23.77904 5240 ft 244 kts 329°
2026-04-25 16:45 37.69111 23.76718 5039 ft 238 kts 329°
2026-04-25 16:46 37.70548 23.75717 4736 ft 233 kts 348°
2026-04-25 16:46 37.72115 23.75605 4424 ft 226 kts 14°
2026-04-25 16:46 37.73558 23.76335 4125 ft 221 kts 35°
2026-04-25 16:46 37.73987 23.76707 4046 ft 220 kts 37°
2026-04-25 16:47 37.75941 23.78643 3693 ft 211 kts 39°
2026-04-25 16:47 37.77090 23.79792 3417 ft 210 kts 38°
2026-04-25 16:47 37.78257 23.80931 3190 ft 205 kts 37°
2026-04-25 16:47 37.79342 23.81972 3181 ft 189 kts 37°
2026-04-25 16:48 37.80370 23.82951 3188 ft 179 kts 37°
2026-04-25 16:48 37.81350 23.83882 2953 ft 168 kts 37°
2026-04-25 16:48 37.82252 23.84738 2729 ft 155 kts 37°
2026-04-25 16:48 37.83096 23.85538 2544 ft 152 kts 37°
2026-04-25 16:49 37.83945 23.86344 2360 ft 151 kts 36°
2026-04-25 16:49 37.84789 23.87145 2170 ft 150 kts 37°
2026-04-25 16:49 37.85608 23.87923 2002 ft 144 kts 36°
2026-04-25 16:49 37.86380 23.88658 1802 ft 133 kts 36°
2026-04-25 16:50 37.87118 23.89360 1627 ft 131 kts 36°
2026-04-25 16:50 37.87845 23.90051 1431 ft 130 kts 37°
2026-04-25 16:50 37.88573 23.90748 1281 ft 130 kts 37°
2026-04-25 16:50 37.89303 23.91448 1097 ft 130 kts 36°
2026-04-25 16:51 37.90033 23.92119 918 ft 129 kts 36°
2026-04-25 16:51 37.90760 23.92803 768 ft 129 kts 38°
2026-04-25 16:51 37.91478 23.93497 582 ft 128 kts 38°
2026-04-25 16:51 37.91947 23.93945 468 ft 128 kts 37°
2026-04-25 16:52 37.92898 23.94841 285 ft 121 kts 38°
2026-04-25 16:52 37.93483 23.95398 274 ft 81 kts 36°
2026-04-25 16:52 37.93810 23.95678 278 ft 39 kts 21°
2026-04-25 16:52 37.93980 23.95729 282 ft 12 kts
2026-04-25 16:53 37.94096 23.95610 277 ft 13 kts 309°
2026-04-25 16:53 37.94154 23.95516 280 ft 13 kts 308°
2026-04-25 16:53 37.94201 23.95438 293 ft 5 kts 307°
2026-04-25 16:54 37.94208 23.95425 295 ft 2 kts 306°
2026-04-25 16:54 37.94218 23.95408 297 ft 4 kts 307°
2026-04-25 16:54 37.94229 23.95390 299 ft 3 kts 307°
2026-04-25 16:54 37.94248 23.95358 301 ft 3 kts 305°
2026-04-25 16:55 37.94247 23.95326 302 ft 5 kts 238°
2026-04-25 16:55 37.94212 23.95287 304 ft 7 kts 215°
2026-04-25 16:55 37.94192 23.95270 306 ft 0 kts 217°